Amateur Radio Satellites - All Passes

Search period start: 19 June 2013 16:54
Search period end: 20 June 2013 16:54
Location: Starlight Observatory, 38.4029°N, 85.8936°W

Satellite Date Start Highest point End Downlink Frequencies (MHz)
Time Altitude Azimuth
AO-Echo 19 Jun 17:10:48 17:12:36 12° 270° (W) 17:14:26 ?
ISS 19 Jun 17:18:54 17:22:00 38° 327° (NNW) 17:25:07 145.800 FM
AO-7 19 Jun 17:23:35 17:31:48 67° 68° (ENE) 17:40:04 29.400 - 29.500 MHz
Uosat F 19 Jun 17:27:59 17:31:56 23° 265° (W) 17:35:54 435.120 FM
TMSAT-1 19 Jun 17:28:33 17:33:31 40° 262° (W) 17:38:30 436.925 FM
KITSAT 1 19 Jun 18:02:15 18:10:11 65° 114° (ESE) 18:18:11 435.175 FM
Gurwin Techsat 1B 19 Jun 18:13:49 18:14:42 10° 271° (W) 18:15:36 435.225 FM
RS-15 19 Jun 18:33:39 18:40:53 18° 15° (NNE) 18:47:56 29.354 - 29.394 USB, Beacon 29.352 USB
Hamsat 19 Jun 18:47:28 18:49:44 14° 65° (ENE) 18:52:00 145.90 MHz
ISS 19 Jun 18:58:26 18:59:25 11° 346° (NNW) 19:00:25 145.800 FM
AO-7 19 Jun 19:18:38 19:25:07 25° 266° (W) 19:31:40 29.400 - 29.500 MHz
MaSat-1 19 Jun 19:36:45 19:41:22 25° 109° (ESE) 19:45:12 437.345 MHz
STRAND 1 19 Jun 19:52:14 19:57:16 51° 100° (E) 20:02:16 ?
KITSAT 1 19 Jun 19:59:11 20:06:07 31° 314° (NW) 20:13:08 435.175 FM
AO-40 19 Jun 20:06:03 02:52:49 48° 177° (S) 08:59:32 Beacon 2401.320
JAS-1B 19 Jun 20:07:25 20:14:26 67° 73° (ENE) 20:20:26 435.800 - 435.900 CW/SSB
Hamsat 19 Jun 20:21:08 20:25:20 50° 261° (W) 20:29:37 145.90 MHz
HO-68 19 Jun 20:31:30 20:35:14 15° 54° (NE) 20:38:58 435.675 MHz FM
RS-15 19 Jun 20:46:34 20:57:10 47° 47° (NE) 21:07:28 29.354 - 29.394 USB, Beacon 29.352 USB
SO-67 19 Jun 20:59:34 21:03:02 50° 261° (W) 21:06:32 435.3500 MHz FM
MaSat-1 19 Jun 21:18:01 21:23:08 37° 297° (WNW) 21:27:12 437.345 MHz
STRAND 1 19 Jun 21:32:32 21:36:03 19° 296° (WNW) 21:39:33 ?
JAS-1B 19 Jun 22:01:00 22:05:21 17° 266° (W) 22:09:21 435.800 - 435.900 CW/SSB
Oscar 11 19 Jun 22:03:34 22:07:13 27° 69° (ENE) 22:10:53 145.825 FM, Beacon 2401.500 USB
JAS-2 19 Jun 22:06:45 22:14:03 61° 73° (ENE) 22:20:36 435.800 - 435.900 CW/SSB, 435.910 FM
ISS 19 Jun 22:12:31 22:15:05 21° 26° (NNE) 22:17:40 145.800 FM
HO-68 19 Jun 22:14:41 22:21:49 81° 72° (ENE) 22:29:00 435.675 MHz FM
Saudisat 1A 19 Jun 22:44:43 22:49:09 54° 117° (ESE) 22:53:39 436.775 MHz
RS-15 19 Jun 22:59:11 23:09:33 51° 250° (WSW) 23:19:50 29.354 - 29.394 USB, Beacon 29.352 USB
OPAL 19 Jun 23:01:14 23:05:53 39° 68° (ENE) 23:10:30 ?
PANSAT 19 Jun 23:04:04 23:06:41 17° 173° (S) 23:09:18 not established
Oscar 11 19 Jun 23:39:48 23:43:22 25° 265° (W) 23:46:58 145.825 FM, Beacon 2401.500 USB
ISS 19 Jun 23:48:45 23:51:57 51° 223° (SW) 23:55:09 145.800 FM
JAS-2 19 Jun 23:53:31 23:59:16 24° 266° (W) 00:04:38 435.800 - 435.900 CW/SSB, 435.910 FM
HO-68 20 Jun 00:06:00 00:10:13 16° 269° (W) 00:14:27 435.675 MHz FM
PCSat 20 Jun 00:18:43 00:21:10 13° 103° (ESE) 00:23:37 145.825 MHz
Oscar 10/S400 20 Jun 00:20:30 07:45:44 60° 115° (ESE) 10:42:34 145.825 - 145.975 CW/USB, Beacon 145.810 USB
Saudisat 1A 20 Jun 00:25:55 00:29:10 19° 315° (NW) 00:32:27 436.775 MHz
OPAL 20 Jun 00:41:00 00:44:53 22° 263° (W) 00:48:45 ?
PANSAT 20 Jun 00:43:48 00:46:26 17° 186° (S) 00:49:03 not established
Sapphire 20 Jun 00:51:02 00:55:27 26° 107° (ESE) 00:59:53 437.095 MHz 1200 baud AX-25 AFSK
SO-50 20 Jun 01:34:26 01:38:51 39° 115° (ESE) 01:43:14 436.795 FM
KITSAT 1 20 Jun 01:57:33 02:04:13 27° 43° (NE) 02:10:49 435.175 FM
PCSat 20 Jun 01:58:29 02:03:53 75° 299° (WNW) 02:09:20 145.825 MHz
Sapphire 20 Jun 02:33:35 02:38:38 40° 304° (NW) 02:43:45 437.095 MHz 1200 baud AX-25 AFSK
Oscar 19 20 Jun 02:40:37 02:44:32 22° 94° (E) 02:48:26 437.125 CW, 437.150 USB
ITAMSAT 1 20 Jun 03:06:34 03:11:13 32° 97° (E) 03:15:49 435.822 SSB
AO-27 20 Jun 03:07:48 03:12:31 33° 97° (E) 03:17:12 436.795 MHz FM
SO-50 20 Jun 03:15:38 03:19:34 25° 311° (NW) 03:23:29 436.795 FM
Oscar 16 20 Jun 03:24:58 03:30:06 71° 102° (ESE) 03:35:12 437.025 USB, Beacon 2401.1428
AO-Echo 20 Jun 03:37:44 03:41:55 24° 95° (E) 03:46:09 ?
Uribyol 2 20 Jun 03:39:34 03:44:48 70° 102° (ESE) 03:49:57 436.500 FM
PCSat 20 Jun 03:46:03 03:48:16 12° 318° (NW) 03:50:30 145.825 MHz
KITSAT 1 20 Jun 03:52:18 04:00:26 77° 244° (WSW) 04:08:31 435.175 FM
Uosat F 20 Jun 03:59:36 04:01:48 13° 91° (E) 04:04:00 435.120 FM
Oscar 19 20 Jun 04:19:15 04:24:01 40° 290° (WNW) 04:28:46 437.125 CW, 437.150 USB
ITAMSAT 1 20 Jun 04:46:08 04:50:37 30° 292° (WNW) 04:55:04 435.822 SSB
Gurwin Techsat 1B 20 Jun 04:46:54 04:51:51 38° 98° (E) 04:56:46 435.225 FM
AO-27 20 Jun 04:47:30 04:51:54 28° 293° (WNW) 04:56:18 436.795 MHz FM
UOSAT-12 20 Jun 04:50:45 04:55:14 83° 120° (ESE) 04:59:48 437.025 FM, 437.400 FM
Oscar 16 20 Jun 05:06:22 05:08:50 14° 298° (WNW) 05:11:18 437.025 USB, Beacon 2401.1428
AO-Echo 20 Jun 05:16:00 05:20:45 38° 289° (WNW) 05:25:36 ?
Uribyol 2 20 Jun 05:20:58 05:23:39 14° 298° (WNW) 05:26:20 436.500 FM
AO-7 20 Jun 05:28:03 05:34:25 23° 94° (E) 05:40:42 29.400 - 29.500 MHz
Uosat F 20 Jun 05:36:01 05:41:03 67° 286° (WNW) 05:46:03 435.120 FM
TMSAT-1 20 Jun 05:45:35 05:50:55 88° 283° (WNW) 05:56:13 436.925 FM
KITSAT 1 20 Jun 05:51:11 05:54:29 13° 261° (W) 05:57:47 435.175 FM
MaSat-1 20 Jun 06:01:52 06:04:18 45° 64° (ENE) 06:06:46 437.345 MHz
Gurwin Techsat 1B 20 Jun 06:27:19 06:31:36 26° 294° (WNW) 06:35:53 435.225 FM
UOSAT-12 20 Jun 06:33:47 06:36:01 13° 318° (NW) 06:38:16 437.025 FM, 437.400 FM
STRAND 1 20 Jun 07:06:45 07:11:48 64° 73° (ENE) 07:16:54 ?
Saudisat 1A 20 Jun 07:13:47 07:17:47 30° 50° (NE) 07:21:43 436.775 MHz
AO-7 20 Jun 07:19:28 07:27:48 71° 291° (WNW) 07:36:03 29.400 - 29.500 MHz
TMSAT-1 20 Jun 07:28:39 07:30:02 11° 300° (WNW) 07:31:24 436.925 FM
JAS-1B 20 Jun 07:53:52 07:57:39 17° 94° (E) 08:01:42 435.800 - 435.900 CW/SSB
Hamsat 20 Jun 08:09:26 08:13:22 32° 97° (E) 08:17:16 145.90 MHz
SO-67 20 Jun 08:29:04 08:30:57 14° 93° (E) 08:32:50 435.3500 MHz FM
STRAND 1 20 Jun 08:48:53 08:51:25 14° 269° (W) 08:53:57 ?
Saudisat 1A 20 Jun 08:53:33 08:57:24 28° 247° (WSW) 09:01:10 436.775 MHz
PCSat 20 Jun 09:07:38 09:08:54 11° 40° (NE) 09:10:10 145.825 MHz
AO-7 20 Jun 09:14:48 09:19:06 15° 311° (NW) 09:23:24 29.400 - 29.500 MHz
Sapphire 20 Jun 09:40:26 09:44:08 18° 47° (NE) 09:47:49 437.095 MHz 1200 baud AX-25 AFSK
JAS-1B 20 Jun 09:42:45 09:48:36 65° 287° (WNW) 09:55:19 435.800 - 435.900 CW/SSB
Hamsat 20 Jun 09:45:57 09:49:13 21° 292° (WNW) 09:52:28 145.90 MHz
HO-68 20 Jun 09:46:19 09:50:18 15° 91° (E) 09:54:16 435.675 MHz FM
SO-67 20 Jun 10:01:17 10:04:29 31° 287° (WNW) 10:07:39 435.3500 MHz FM
SO-50 20 Jun 10:08:13 10:11:57 24° 48° (NE) 10:15:37 436.795 FM
PCSat 20 Jun 10:48:02 10:53:26 63° 60° (ENE) 10:58:48 145.825 MHz
JAS-2 20 Jun 11:03:35 11:08:48 52° 100° (E) 11:13:49 435.800 - 435.900 CW/SSB, 435.910 FM
RS-15 20 Jun 11:08:43 11:18:45 33° 105° (ESE) 11:28:26 29.354 - 29.394 USB, Beacon 29.352 USB
OPAL 20 Jun 11:15:30 11:16:30 11° 92° (E) 11:17:30 ?
Sapphire 20 Jun 11:22:41 11:28:06 70° 245° (WSW) 11:33:28 437.095 MHz 1200 baud AX-25 AFSK
Oscar 11 20 Jun 11:28:21 11:32:44 66° 101° (E) 11:37:03 145.825 FM, Beacon 2401.500 USB
HO-68 20 Jun 11:31:31 11:38:45 85° 287° (WNW) 11:45:56 435.675 MHz FM
SO-50 20 Jun 11:48:30 11:52:38 36° 246° (WSW) 11:56:42 436.795 FM
PCSat 20 Jun 12:33:05 12:36:17 16° 256° (WSW) 12:39:29 145.825 MHz
JAS-2 20 Jun 12:50:02 12:53:25 17° 298° (WNW) 12:56:43 435.800 - 435.900 CW/SSB, 435.910 FM
OPAL 20 Jun 12:50:55 12:55:53 77° 287° (WNW) 13:00:53 ?
Oscar 16 20 Jun 13:06:07 13:07:05 11° 60° (ENE) 13:08:03 437.025 USB, Beacon 2401.1428
Oscar 11 20 Jun 13:07:08 13:08:22 11° 297° (WNW) 13:09:35 145.825 FM, Beacon 2401.500 USB
RS-15 20 Jun 13:18:21 13:30:20 70° 304° (NW) 13:41:49 29.354 - 29.394 USB, Beacon 29.352 USB
Uribyol 2 20 Jun 13:21:11 13:22:32 11° 59° (ENE) 13:23:53 436.500 FM
HO-68 20 Jun 13:21:21 13:25:24 16° 305° (NW) 13:29:27 435.675 MHz FM
UOSAT-12 20 Jun 13:21:56 13:26:23 46° 54° (NE) 13:30:49 437.025 FM, 437.400 FM
Oscar 19 20 Jun 13:56:08 14:00:29 28° 68° (ENE) 14:04:49 437.125 CW, 437.150 USB
ITAMSAT 1 20 Jun 14:23:09 14:28:01 41° 70° (ENE) 14:32:54 435.822 SSB
AO-27 20 Jun 14:24:31 14:29:25 44° 71° (ENE) 14:34:22 436.795 MHz FM
Oscar 16 20 Jun 14:40:27 14:45:38 88° 76° (ENE) 14:50:50 437.025 USB, Beacon 2401.1428
AO-Echo 20 Jun 14:50:00 14:53:48 25° 67° (ENE) 14:57:39 ?
ISS 20 Jun 14:55:38 14:56:31 11° 127° (SE) 14:57:23 145.800 FM
Uribyol 2 20 Jun 14:55:59 15:01:13 89° 77° (ENE) 15:06:29 436.500 FM
UOSAT-12 20 Jun 15:03:04 15:06:12 18° 250° (WSW) 15:09:19 437.025 FM, 437.400 FM
Uosat F 20 Jun 15:11:30 15:14:34 17° 63° (ENE) 15:17:39 435.120 FM
TMSAT-1 20 Jun 15:27:58 15:30:55 15° 62° (ENE) 15:33:52 436.925 FM
Oscar 19 20 Jun 15:35:06 15:39:42 32° 263° (W) 15:44:19 437.125 CW, 437.150 USB
RS-15 20 Jun 15:36:18 15:45:16 24° 331° (NNW) 15:53:59 29.354 - 29.394 USB, Beacon 29.352 USB
ITAMSAT 1 20 Jun 16:03:39 16:07:39 22° 266° (W) 16:11:40 435.822 SSB
AO-27 20 Jun 16:05:15 16:09:07 21° 266° (W) 16:13:01 436.795 MHz FM
Gurwin Techsat 1B 20 Jun 16:06:32 16:11:39 52° 72° (ENE) 16:16:48 435.225 FM
AO-7 20 Jun 16:25:36 16:32:30 30° 58° (ENE) 16:39:26 29.400 - 29.500 MHz
KITSAT 1 20 Jun 16:27:07 16:31:56 17° 101° (E) 16:36:45 435.175 FM
AO-Echo 20 Jun 16:28:16 16:32:26 31° 264° (W) 16:36:42 ?
ISS 20 Jun 16:29:30 16:32:46 69° 322° (NW) 16:36:03 145.800 FM

Developed and maintained by Chris Peat, Heavens-Above GmbH. Please read the updated FAQ before sending e-mail. Imprint. DLR
